INTELSAT 22 (IS-22) (38098 NORAD) Tracking and Keplerian Element Data

This shows tracking and keplerian element data for the satellite.

Feedback or suggestion? Click here.




ElementValue
Catalog38098
NameINTELSAT 22 (IS-22)
Epoch Orbit219
Epoch Day34.7492075
Epoch Year2025
RAAN223.8211
Inclination0.0119
Eccentricity0.000179
Argument of Perigee101.4887
Mean Anonmoly150.6425
Mean Motion1.00271659
Decay Rate-5.4E-07
L11 38098U 12011A 25034.74920750 -.00000054 00000+0 00000+0 0 9999
L22 38098 0.0119 223.8211 0001790 101.4887 150.6425 1.00271659 2192



Live tracking and technical data element details for INTELSAT 22 (IS-22) (NORAD 38098). INTELSAT 22 (IS-22) can be tracked NOW for your location showing map with azimuth and elevation plus other details from your city location.







IsCatalogInMostPopularTable: catalog: 38098, numindb: 797
Update: records affected: 1



GetName: 38098 INTELSAT 22 (IS-22)

Hit Count: updated at: Wed, 30 Apr 2025 17:53:12 GMT